Glen Aubrey, NY

8:21 PM EDT on August 25, 2016 (GMT -0400)
Binghamton Regional-Link

Weather History for KBGM - February, 2014

Change the Weather History Date:

Wednesday, February 26, 2014

  Actual Average Record
Temperature  
Mean Temperature 10 °F 27 °F  
Max Temperature 15 °F 35 °F 62 °F (1976)
Min Temperature 5 °F 19 °F -6 °F (1990)
Degree Days  
Heating Degree Days 55 38  
Month to date heating degree days 1147 1052  
Since 1 July heating degree days 5357 5124  
Cooling Degree Days 0 0  
Month to date cooling degree days 0 0  
Year to date cooling degree days 0 0  
Moisture  
Dew Point 0 °F    
Average Humidity 62    
Maximum Humidity 84    
Minimum Humidity 40    
Precipitation  
Precipitation T in 0.09 in 0.55 in (1957)
Month to date precipitation 2.74 2.13  
Year to date precipitation 5.68 4.58  
Snow  
Snow T in 0.60 in 5.80 in (1972)
Month to date snowfall 25.9 15.9  
Since 1 July snowfall 82.3 62.7  
Snow Depth 7.00 in    
Sea Level Pressure  
Sea Level Pressure 29.85 in    
Wind  
Wind Speed 8 mph (West)    
Max Wind Speed 24 mph    
Max Gust Speed 30 mph    
Visibility 9 miles    
Events Snow    
T = Trace of Precipitation, MM = Missing Value Source: NWS Daily Summary

Daily Weather History Graph

Daily Weather History Graph

Search for Another Location

Airport or City:

Trip Planner

Search our weather history database for the weather conditions in past years. The results will help you decide how hot, cold, wet, or windy it might be!

Date:

Astronomy

Feb. 26, 2014 Rise Set
Actual Time 6:43 AM EST 5:50 PM EST
Civil Twilight 6:15 AM EST 6:18 PM EST
Nautical Twilight 5:43 AM EST 6:50 PM EST
Astronomical Twilight 5:10 AM EST 7:23 PM EST
Moon 4:30 AM EST 3:00 PM EST
Length of Visible Light 12h 02m
Length of Day
11h 06m
Waning Crescent, 10% of the Moon is Illuminated
Feb 26
Waning Crescent
Mar 1
New
Mar 8
First Quarter
Mar 16
Full
Mar 23
Last Quarter

Hourly Weather History & Observations

Time (EST) Temp. Windchill Dew Point Humidity Pressure Visibility Wind Dir Wind Speed Gust Speed Precip Events Conditions
12:53 AM 12.9 °F 6.9 °F 5.0 °F 71% 29.89 in 10.0 mi South 3.5 mph - N/A   Overcast
1:53 AM 12.0 °F 5.9 °F 5.0 °F 73% 29.88 in 10.0 mi South 3.5 mph - N/A   Overcast
2:53 AM 10.9 °F 4.7 °F 5.0 °F 77% 29.85 in 10.0 mi South 3.5 mph - N/A   Overcast
3:53 AM 12.9 °F 3.8 °F 7.0 °F 77% 29.83 in 5.0 mi SSW 5.8 mph - 0.00 in Snow Light Snow
4:22 AM 12.2 °F 1.7 °F 6.8 °F 79% 29.74 in 10.0 mi SSW 6.9 mph - 0.00 in   Mostly Cloudy
4:53 AM 12.9 °F 1.6 °F 6.1 °F 74% 29.82 in 10.0 mi SW 8.1 mph - 0.00 in   Mostly Cloudy
5:53 AM 12.9 °F -0.2 °F 8.1 °F 81% 29.83 in 10.0 mi WSW 10.4 mph - N/A   Partly Cloudy
6:50 AM 12.2 °F 2.9 °F 6.8 °F 79% 29.75 in 10.0 mi WNW 5.8 mph - N/A   Mostly Cloudy
6:53 AM 12.9 °F 5.2 °F 7.0 °F 77% 29.84 in 8.0 mi WNW 4.6 mph - N/A   Overcast
6:59 AM 12.2 °F -0.2 °F 8.6 °F 85% 29.76 in 1.0 mi WNW 9.2 mph - 0.00 in Snow Light Snow
7:27 AM 10.4 °F 0.8 °F 8.6 °F 92% 29.77 in 2.0 mi WNW 5.8 mph - 0.00 in Snow Light Snow
7:36 AM 10.4 °F -0.4 °F 6.8 °F 85% 29.77 in 9.0 mi WNW 6.9 mph - 0.00 in   Overcast
7:53 AM 10.9 °F -1.8 °F 6.1 °F 81% 29.88 in 3.0 mi WNW 9.2 mph - 0.00 in Snow Light Snow
8:53 AM 12.0 °F -2.0 °F 1.9 °F 64% 29.90 in 8.0 mi WNW 11.5 mph 26.5 mph 0.00 in   Overcast
9:53 AM 12.0 °F -5.1 °F -5.1 °F 46% 29.93 in 10.0 mi West 17.3 mph 25.3 mph N/A   Scattered Clouds
10:53 AM 14.0 °F -0.8 °F -5.1 °F 43% 29.93 in 10.0 mi WNW 13.8 mph 23.0 mph N/A   Mostly Cloudy
11:53 AM 12.0 °F -2.0 °F -6.0 °F 44% 29.93 in 10.0 mi WNW 11.5 mph 21.9 mph N/A   Overcast
12:53 PM 12.0 °F -3.4 °F -7.1 °F 42% 29.91 in 10.0 mi West 13.8 mph 23.0 mph N/A   Overcast
1:53 PM 12.9 °F -1.6 °F -6.0 °F 43% 29.88 in 10.0 mi WNW 12.7 mph 23.0 mph N/A   Mostly Cloudy
2:53 PM 12.9 °F -0.2 °F -6.0 °F 43% 29.88 in 10.0 mi WNW 10.4 mph - N/A   Mostly Cloudy
3:53 PM 14.0 °F 3.9 °F -7.1 °F 39% 29.86 in 10.0 mi NW 6.9 mph 16.1 mph N/A   Partly Cloudy
4:53 PM 14.0 °F 3.9 °F -7.1 °F 39% 29.85 in 10.0 mi NW 6.9 mph - N/A   Clear
5:53 PM 10.9 °F 2.9 °F -7.1 °F 44% 29.85 in 10.0 mi NNW 4.6 mph - N/A   Clear
6:53 PM 10.0 °F 1.8 °F -7.1 °F 46% 29.85 in 10.0 mi North 4.6 mph - N/A   Clear
7:53 PM 10.0 °F 1.8 °F -7.1 °F 46% 29.84 in 10.0 mi NNW 4.6 mph - N/A   Clear
8:53 PM 8.1 °F - -8.0 °F 48% 29.83 in 10.0 mi Calm Calm - N/A   Clear
9:53 PM 7.0 °F 0.1 °F -8.0 °F 51% 29.82 in 10.0 mi SE 3.5 mph - N/A   Clear
10:53 PM 6.1 °F -2.8 °F -8.0 °F 53% 29.80 in 10.0 mi SSE 4.6 mph - N/A   Overcast
11:53 PM 5.0 °F -5.6 °F -7.1 °F 58% 29.79 in 10.0 mi SSE 5.8 mph - N/A   Overcast